Regional Weather Roundup
Issued by NWS Cleveland, OH

Home | Current Version | Previous Version | Text Only | Print | Product List | Glossary On
Versions: 1 2 3 4 5 6 7 8 9 10 11 12 13 14 15 16 17 18 19 20 21 22 23 24 25 26 27 28 29 30 31 32 33 34 35 36 37 38 39 40 41 42 43 44 45 46 47 48 49 50
000
ASUS41 KCLE 211502
RWRCLE
OHIO REGIONAL WEATHER ROUNDUP
NATIONAL WEATHER SERVICE CLEVELAND, OH
1000 AM EST THU NOV 21 2019

NOTE: "FAIR" INDICATES FEW OR NO CLOUDS BELOW 12,000 FEET WITH NO
SIGNIFICANT WEATHER AND/OR OBSTRUCTIONS TO VISIBILITY.

OHZ001>008-015>018-024>027-034-035-043-044-211600-
   NORTHWEST OHIO

CITY           SKY/WX    TMP DP  RH WIND       PRES   REMARKS
DEFIANCE       CLOUDY    47  39  74 S7        30.00F
FINDLAY        FAIR      45  39  79 SE13      30.02F
TOLEDO EXPRESS CLOUDY    45  37  73 S6        30.02F
TOLEDO EXEC    CLOUDY    44  38  79 S15       30.03F
LIMA           PTSUNNY   47  39  74 S15G23    30.02S
$$

OHZ009>014-019>023-028>033-038-089-211600-
   NORTHEAST OHIO

CITY           SKY/WX    TMP DP  RH WIND       PRES   REMARKS
CLE-HOPKINS    CLOUDY    45  35  68 S15G24    30.09F
CLE-LAKEFRONT  FAIR      42  32  67 SE16G23   30.06F
CUY CO. ARPT   PTSUNNY   39  30  70 S12       30.07F
LORAIN-ELYRIA  CLOUDY    42  32  67 S17       30.07F
ASHTABULA      FAIR      37  31  78 S12       30.13F
AKRON-CANTON   CLOUDY    42  37  82 S12       30.11F HAZE
WOOSTER        FAIR      42  36  79 S14       30.10F
MANSFIELD      FAIR      44  37  76 S17G25    30.07F
YOUNGSTOWN     CLOUDY    38  30  73 SE9       30.12F
$$

OHZ042-051>053-060>062-070>072-077>081-211600-
  SOUTHWEST OHIO

CITY           SKY/WX    TMP DP  RH WIND       PRES   REMARKS
CINC-COVINGTON CLOUDY    49  38  65 S14       30.07F
CINC-LUNKEN    FAIR      47  40  76 S8        30.11F
HAMILTON       FAIR      47  31  53 VRB3      30.10F
DAYTON         CLOUDY    47  38  71 S14       30.07S
WRIGHT-PAT AFB CLOUDY    46  38  75 S10       30.08S
DAYTON GENERAL PTSUNNY   48  38  68 S13       30.07F
WILMINGTON     PTSUNNY   45  39  79 S9        30.10R
$$

OHZ036-037-039>041-045>050-054>059-063>069-073>076-082>088-211600-
  CENTRAL AND SOUTHEAST OHIO

CITY           SKY/WX    TMP DP  RH WIND       PRES   REMARKS
COLUMBUS       CLOUDY    45  36  70 S9        30.10F
OSU AIRPORT    PTSUNNY   44  36  73 S9        30.09F
BOLTON FIELD   PTSUNNY   43  39  87 S10       30.10F
RICKENBACK AFB NOT AVBL
NEWARK         FAIR      45  38  76 SE6       30.11F
MARION         CLOUDY    44  37  76 S15       30.07F
LANCASTER      FAIR      44  37  76 SE8       30.12F
ZANESVILLE     FAIR      42  35  76 SE8       30.15F
NEW PHILLY     NOT AVBL
$$



USA.gov is the U.S. government's official web portal to all federal, state and local government web resources and services.